H1 CPF 2 NER 2021 1 27 9 027 01 glonass122 H2 1004103 9122 37139 2021 1 27 0 0 0 2021 1 30 23 45 0 900 1 1 0 0 0 1 H9 10 0 59241 0.00000 0 6575068.371 9303776.707 -22840538.441 10 0 59241 900.00000 0 4811775.792 11450886.726 -22286170.773 10 0 59241 1800.00000 0 3260847.009 13642553.263 -21299292.032 10 0 59241 2700.00000 0 1947379.394 15815715.887 -19898532.849 10 0 59241 3600.00000 0 884499.008 17904974.977 -18110624.519 10 0 59241 4500.00000 0 73007.710 19845193.421 -15969918.199 10 0 59241 5400.00000 0 -498442.041 21574116.559 -13517748.512 10 0 59241 6300.00000 0 -852649.281 23034899.919 -10801651.103 10 0 59241 7200.00000 0 -1022670.843 24178436.668 -7874447.549 10 0 59241 8100.00000 0 -1050181.122 24965383.942 -4793214.523 10 0 59241 9000.00000 0 -983454.568 25367799.193 -1618157.473 10 0 59241 9900.00000 0 -875057.540 25370313.768 1588587.806 10 0 59241 10800.00000 0 -779349.745 24970790.894 4764200.027 10 0 59241 11700.00000 0 -749904.693 24180437.645 7846436.330 10 0 59241 12600.00000 0 -836962.631 23023364.760 10774886.883 10 0 59241 13500.00000 0 -1085028.362 21535612.705 13492192.001 10 0 59241 14400.00000 0 -1530719.917 19763686.233 15945194.497 10 0 59241 15300.00000 0 -2200962.681 17762661.493 18086001.716 10 0 59241 16200.00000 0 -3111607.888 15593948.436 19872934.382 10 0 59241 17100.00000 0 -4266535.231 13322805.960 21271342.518 10 0 59241 18000.00000 0 -5657277.513 11015717.477 22254272.335 10 0 59241 18900.00000 0 -7263182.144 8737739.518 22802971.929 10 0 59241 19800.00000 0 -9052100.815 6549936.081 22907227.707 10 0 59241 20700.00000 0 -10981575.844 4507006.465 22565527.392 10 0 59241 21600.00000 0 -13000470.855 2655204.690 21785049.405 10 0 59241 22500.00000 0 -15050975.046 1030635.058 20581481.945 10 0 59241 23400.00000 0 -17070895.263 -342008.418 18978678.436 10 0 59241 24300.00000 0 -18996139.006 -1450210.479 17008158.909 10 0 59241 25200.00000 0 -20763284.511 -2293883.675 14708469.445 10 0 59241 26100.00000 0 -22312131.420 -2885092.434 12124414.003 10 0 59241 27000.00000 0 -23588127.360 -3247268.160 9306174.791 10 0 59241 27900.00000 0 -24544571.690 -3413951.999 6308338.701 10 0 59241 28800.00000 0 -25144507.398 -3427120.642 3188848.594 10 0 59241 29700.00000 0 -25362225.395 -3335166.993 7898.867 10 0 59241 30600.00000 0 -25184321.422 -3190620.888 -3173204.748 10 0 59241 31500.00000 0 -24610264.008 -3047704.850 -6293200.964 10 0 59241 32400.00000 0 -23652451.556 -2959826.099 -9292024.298 10 0 59241 33300.00000 0 -22335756.995 -2977108.069 -12111932.323 10 0 59241 34200.00000 0 -20696578.743 -3144062.877 -14698589.652 10 0 59241 35100.00000 0 -18781436.240 -3497500.430 -17002090.313 10 0 59241 36000.00000 0 -16645166.225 -4064760.473 -18977901.176 10 0 59241 36900.00000 0 -14348791.873 -4862341.098 -20587710.071 10 0 59241 37800.00000 0 -11957149.924 -5894981.735 -21800163.625 10 0 59241 38700.00000 0 -9536370.841 -7155240.725 -22591481.256 10 0 59241 39600.00000 0 -7151313.469 -8623587.988 -22945933.245 10 0 59241 40500.00000 0 -4863058.003 -10269012.702 -22856172.706 10 0 59241 41400.00000 0 -2726559.595 -12050125.092 -22323413.192 10 0 59241 42300.00000 0 -788559.438 -13916710.902 -21357445.934 10 0 59241 43200.00000 0 914159.531 -15811678.081 -19976493.294 10 0 59241 44100.00000 0 2356098.292 -17673318.127 -18206897.758 10 0 59241 45000.00000 0 3523891.316 -19437790.184 -16082649.014 10 0 59241 45900.00000 0 4416641.979 -21041725.294 -13644755.010 10 0 59241 46800.00000 0 5045727.110 -22424841.594 -10940466.434 10 0 59241 47700.00000 0 5434076.545 -23532459.166 -8022367.780 10 0 59241 48600.00000 0 5614956.410 -24317806.122 -4947351.771 10 0 59241 49500.00000 0 5630306.912 -24744015.330 -1775497.211 10 0 59241 50400.00000 0 5528705.441 -24785723.604 1431126.481 10 0 59241 51300.00000 0 5363043.077 -24430202.067 4609702.477 10 0 59241 52200.00000 0 5188015.916 -23677966.638 7697930.192 10 0 59241 53100.00000 0 5057541.321 -22542840.555 10635281.023 10 0 59241 54000.00000 0 5022212.931 -21051465.167 13364217.974 10 0 59241 54900.00000 0 5126906.568 -19242279.871 15831351.827 10 0 59241 55800.00000 0 5408642.256 -17164015.637 17988508.182 10 0 59241 56700.00000 0 5894795.861 -14873768.009 19793682.376 10 0 59241 57600.00000 0 6601737.800 -12434733.588 21211862.347 10 0 59241 58500.00000 0 7533956.975 -9913708.273 22215703.165 10 0 59241 59400.00000 0 8683706.229 -7378454.942 22786040.879 10 0 59241 60300.00000 0 10031182.692 -4895052.810 22912237.381 10 0 59241 61200.00000 0 11545232.953 -2525340.340 22592351.955 10 0 59241 62100.00000 0 13184550.711 -324558.126 21833139.123 10 0 59241 63000.00000 0 14899313.841 1660711.558 20649875.936 10 0 59241 63900.00000 0 16633189.791 3394225.451 19066025.233 10 0 59241 64800.00000 0 18325623.596 4851314.112 17112744.294 10 0 59241 65700.00000 0 19914311.853 6019623.965 14828250.908 10 0 59241 66600.00000 0 21337759.226 6899340.449 12257061.096 10 0 59241 67500.00000 0 22537811.680 7502887.770 9449114.537 10 0 59241 68400.00000 0 23462062.418 7854122.052 6458805.204 10 0 59241 69300.00000 0 24066032.509 7987055.059 3343935.901 10 0 59241 70200.00000 0 24315037.939 7944164.266 164616.152 10 0 59241 71100.00000 0 24185668.001 7774361.323 -3017876.668 10 0 59241 72000.00000 0 23666815.829 7530704.104 -6142252.779 10 0 59241 72900.00000 0 22760220.055 7267947.348 -9148361.962 10 0 59241 73800.00000 0 21480496.050 7040032.963 -11978322.440 10 0 59241 74700.00000 0 19854655.566 6897623.112 -14577607.390 10 0 59241 75600.00000 0 17921133.777 6885777.350 -16896070.771 10 0 59241 76500.00000 0 15728362.183 7041869.365 -18888895.056 10 0 59241 77400.00000 0 13332943.877 7393829.367 -20517444.427 10 0 59241 78300.00000 0 10797503.498 7958785.526 -21750008.422 10 0 59241 79200.00000 0 8188297.347 8742162.174 -22562422.332 10 0 59241 80100.00000 0 5572679.220 9737274.485 -22938552.238 10 0 59241 81000.00000 0 3016523.864 10925439.677 -22870634.364 10 0 59241 81900.00000 0 581712.402 12276603.968 -22359460.412 10 0 59241 82800.00000 0 -1676217.253 13750463.429 -21414402.754 10 0 59241 83700.00000 0 -3710157.831 15298036.277 -20053275.933 10 0 59241 84600.00000 0 -5483170.447 16863624.854 -18302033.669 10 0 59241 85500.00000 0 -6969798.494 18387088.309 -16194303.764 10 0 59242 0.00000 0 -8156900.579 19806332.751 -13770766.681 10 0 59242 900.00000 0 -9043964.821 21059914.887 -11078386.684 10 0 59242 1800.00000 0 -9642889.245 22089649.339 -8169509.479 10 0 59242 2700.00000 0 -9977234.443 22843106.756 -5100841.663 10 0 59242 3600.00000 0 -10080980.024 23275895.483 -1932332.870 10 0 59242 4500.00000 0 -9996836.282 23353625.564 1274016.676 10 0 59242 5400.00000 0 -9774184.113 23053468.549 4455397.659 10 0 59242 6300.00000 0 -9466732.571 22365243.200 7549454.990 10 0 59242 7200.00000 0 -9129996.695 21291978.182 10495544.616 10 0 59242 8100.00000 0 -8818706.473 19849925.955 13235955.571 10 0 59242 9000.00000 0 -8584261.030 18068026.545 15717069.904 10 0 59242 9900.00000 0 -8472339.847 15986844.399 17890434.660 10 0 59242 10800.00000 0 -8520775.521 13657024.788 19713722.787 10 0 59242 11700.00000 0 -8757780.380 11137337.172 21151562.901 10 0 59242 12600.00000 0 -9200602.986 8492390.675 22176221.389 10 0 59242 13500.00000 0 -9854671.099 5790120.298 22768124.338 10 0 59242 14400.00000 0 -10713255.886 3099151.432 22916210.780 10 0 59242 15300.00000 0 -11757669.239 486154.422 22618112.731 10 0 59242 16200.00000 0 -12957983.017 -1986700.099 21880161.446 10 0 59242 17100.00000 0 -14274236.888 -4264079.929 20717222.893 10 0 59242 18000.00000 0 -15658081.105 -6299528.744 19152368.801 10 0 59242 18900.00000 0 -17054782.852 -8057120.752 17216392.606 10 0 59242 19800.00000 0 -18405510.443 -9512667.872 14947182.166 10 0 59242 20700.00000 0 -19649798.890 -10654433.734 12388963.439 10 0 59242 21600.00000 0 -20728093.891 -11483329.636 9591431.042 10 0 59242 22500.00000 0 -21584268.944 -12012588.799 6608783.159 10 0 59242 23400.00000 0 -22168012.179 -12266936.422 3498679.437 10 0 59242 24300.00000 0 -22436985.554 -12281293.226 321141.256 10 0 59242 25200.00000 0 -22358668.766 -12099068.617 -2862585.742 10 0 59242 26100.00000 0 -21911813.360 -11770115.634 -5991186.682 10 0 59242 27000.00000 0 -21087448.385 -11348432.950 -9004430.021 10 0 59242 27900.00000 0 -19889396.936 -10889708.948 -11844297.969 10 0 59242 28800.00000 0 -18334282.487 -10448808.792 -14456075.493 10 0 59242 29700.00000 0 -16451024.093 -10077307.555 -16789379.522 10 0 59242 30600.00000 0 -14279839.703 -9821170.549 -18799110.889 10 0 59242 31500.00000 0 -11870796.424 -9718676.234 -20446312.521 10 0 59242 32400.00000 0 -9281964.480 -9798667.675 -21698918.794 10 0 59242 33300.00000 0 -6577247.568 -10079205.686 -22532382.286 10 0 59242 34200.00000 0 -3823975.662 -10566681.109 -22930165.735 10 0 59242 35100.00000 0 -1090356.332 -11255425.590 -22884088.782 10 0 59242 36000.00000 0 1557112.920 -12127840.280 -22394521.069 10 0 59242 36900.00000 0 4056166.064 -13155040.940 -21470415.428 10 0 59242 37800.00000 0 6351120.188 -14297996.632 -20129177.494 10 0 59242 38700.00000 0 8394959.599 -15509118.368 -18396370.767 10 0 59242 39600.00000 0 10151064.380 -16734234.580 -16305259.381 10 0 59242 40500.00000 0 11594509.334 -17914873.077 -13896194.099 10 0 59242 41400.00000 0 12712876.429 -18990754.844 -11215850.633 10 0 59242 42300.00000 0 13506543.899 -19902394.624 -8316333.141 10 0 59242 43200.00000 0 13988437.415 -20593697.154 -5254159.237 10 0 59242 44100.00000 0 14183251.989 -21014436.732 -2089146.351 10 0 59242 45000.00000 0 14126176.571 -21122511.711 1116777.633 10 0 59242 45900.00000 0 13861175.630 -20885874.444 4300814.091 10 0 59242 46800.00000 0 13438902.012 -20284050.900 7400556.546 10 0 59242 47700.00000 0 12914332.193 -19309182.014 10355248.454 10 0 59242 48600.00000 0 12344227.694 -17966539.974 13107007.625 10 0 59242 49500.00000 0 11784534.266 -16274495.955 15601989.814 10 0 59242 50400.00000 0 11287833.050 -14263940.400 17791465.605 10 0 59242 51300.00000 0 10900955.246 -11977181.130 19632787.269 10 0 59242 52200.00000 0 10662863.889 -9466367.504 21090225.398 10 0 59242 53100.00000 0 10602893.905 -6791509.468 22135658.580 10 0 59242 54000.00000 0 10739425.013 -4018177.276 22749103.411 10 0 59242 54900.00000 0 11079042.490 -1214980.722 22919076.146 10 0 59242 55800.00000 0 11616219.083 1549064.750 22642781.254 10 0 59242 56700.00000 0 12333528.526 4207174.216 21926126.131 10 0 59242 57600.00000 0 13202378.362 6697322.021 20783564.797 10 0 59242 58500.00000 0 14184227.817 8964559.175 19237776.775 10 0 59242 59400.00000 0 15232236.526 10963025.548 17319190.361 10 0 59242 60300.00000 0 16293272.455 12657576.770 15065362.020 10 0 59242 61200.00000 0 17310193.220 14024962.337 12520226.007 10 0 59242 62100.00000 0 18224304.575 15054510.552 9733230.089 10 0 59242 63000.00000 0 18977893.437 15748296.386 6758374.714 10 0 59242 63900.00000 0 19516730.614 16120789.387 3653174.277 10 0 59242 64800.00000 0 19792440.411 16197999.819 477559.798 10 0 59242 65700.00000 0 19764640.266 16016161.162 -2707257.108 10 0 59242 66600.00000 0 19402763.344 15620005.344 -5839938.803 10 0 59242 67500.00000 0 18687490.074 15060703.086 -8860174.718 10 0 59242 68400.00000 0 17611730.356 14393554.662 -11709813.273 10 0 59242 69300.00000 0 16181116.246 13675526.067 -14333953.318 10 0 59242 70200.00000 0 14413984.255 12962731.482 -16681976.702 10 0 59242 71100.00000 0 12340846.635 12307965.028 -18708504.424 10 0 59242 72000.00000 0 10003371.273 11758382.861 -20374259.838 10 0 59242 72900.00000 0 7452909.255 11353430.915 -21646823.723 10 0 59242 73800.00000 0 4748627.283 11123104.128 -22501267.413 10 0 59242 74700.00000 0 1955318.270 11086610.129 -22920651.647 10 0 59242 75600.00000 0 -859023.306 11251494.559 -22896380.675 10 0 59242 76500.00000 0 -3625764.443 11613266.939 -22428403.043 10 0 59242 77400.00000 0 -6278231.591 12155545.931 -21525252.715 10 0 59242 78300.00000 0 -8754237.621 12850721.622 -20203926.728 10 0 59242 79200.00000 0 -10998433.461 13661110.977 -18489598.273 10 0 59242 80100.00000 0 -12964385.928 14540561.563 -16415167.305 10 0 59242 81000.00000 0 -14616293.560 15436439.094 -14020654.033 10 0 59242 81900.00000 0 -15930266.390 16291917.003 -11352444.217 10 0 59242 82800.00000 0 -16895113.168 17048472.132 -8462398.904 10 0 59242 83700.00000 0 -17512600.229 17648480.378 -5406844.830 10 0 59242 84600.00000 0 -17797168.724 18037800.458 -2245465.067 10 0 59242 85500.00000 0 -17775120.548 18168233.238 959887.204 10 0 59243 0.00000 0 -17483306.914 17999748.608 4146426.542 10 0 59243 900.00000 0 -16967375.819 17502380.869 7251697.932 10 0 59243 1800.00000 0 -16279654.486 16657709.676 10214835.167 10 0 59243 2700.00000 0 -15476759.710 15459858.146 12977787.790 10 0 59243 3600.00000 0 -14617040.732 13915965.899 15486488.281 10 0 59243 4500.00000 0 -13757967.106 12046114.280 17691933.750 10 0 59243 5400.00000 0 -12953575.763 9882707.647 19551158.681 10 0 59243 6300.00000 0 -12252088.315 7469337.756 21028078.348 10 0 59243 7200.00000 0 -11693801.356 4859181.134 22094185.990 10 0 59243 8100.00000 0 -11309339.571 2112999.179 22729090.847 10 0 59243 9000.00000 0 -11118344.802 -703172.691 22920888.143 10 0 59243 9900.00000 0 -11128654.499 -3520547.902 22666356.128 10 0 59243 10800.00000 0 -11336001.345 -6270216.833 21970979.195 10 0 59243 11700.00000 0 -11724243.172 -8885770.140 20848799.785 10 0 59243 12600.00000 0 -12266109.733 -11305808.619 19322105.087 10 0 59243 13500.00000 0 -12924431.266 -13476237.020 17420957.620 10 0 59243 14400.00000 0 -13653794.074 -15352249.337 15182581.345 10 0 59243 15300.00000 0 -14402551.176 -16899926.621 12650617.268 10 0 59243 16200.00000 0 -15115102.215 -18097385.195 9874264.353 10 0 59243 17100.00000 0 -15734346.516 -18935431.904 6907323.034 10 0 59243 18000.00000 0 -16204207.017 -19417703.335 3807159.883 10 0 59243 18900.00000 0 -16472120.602 -19560286.941 633612.760 10 0 59243 19800.00000 0 -16491392.498 -19390842.759 -2552143.751 10 0 59243 20700.00000 0 -16223318.361 -18947264.204 -5688752.403 10 0 59243 21600.00000 0 -15638987.430 -18275934.633 -8715826.883 10 0 59243 22500.00000 0 -14720693.126 -17429652.130 -11575085.170 10 0 59243 23400.00000 0 -13462893.251 -16465307.920 -14211443.365 10 0 59243 24300.00000 0 -11872679.860 -15441413.407 -16574051.533 10 0 59243 25200.00000 0 -9969738.276 -14415576.722 -18617253.959 10 0 59243 26100.00000 0 -7785794.956 -13442031.739 -20301457.249 10 0 59243 27000.00000 0 -5363574.144 -12569320.607 -21593891.040 10 0 59243 27900.00000 0 -2755302.780 -11838225.058 -22469247.388 10 0 59243 28800.00000 0 -20821.490 -11280032.234 -22910186.487 10 0 59243 29700.00000 0 2774624.445 -10915207.891 -22907698.097 10 0 59243 30600.00000 0 5562826.751 -10752533.837 -22461310.045 10 0 59243 31500.00000 0 8275190.572 -10788748.115 -21579137.315 10 0 59243 32400.00000 0 10845341.306 -11008706.101 -20277767.775 10 0 59243 33300.00000 0 13211654.967 -11386059.294 -18581983.312 10 0 59243 34200.00000 0 15319606.768 -11884426.822 -16524318.292 10 0 59243 35100.00000 0 17123839.033 -12459013.513 -14144460.547 10 0 59243 36000.00000 0 18589859.921 -13058608.663 -11488503.642 10 0 59243 36900.00000 0 19695299.055 -13627882.362 -8608062.873 10 0 59243 37800.00000 0 20430664.345 -14109882.183 -5559271.070 10 0 59243 38700.00000 0 20799565.367 -14448623.131 -2401673.625 10 0 59243 39600.00000 0 20818391.577 -14591658.450 802954.532 10 0 59243 40500.00000 0 20515457.728 -14492518.676 3991844.898 10 0 59243 41400.00000 0 19929652.515 -14112911.346 7102497.271 10 0 59243 42300.00000 0 19108648.775 -13424583.862 10073939.288 10 0 59243 43200.00000 0 18106753.363 -12410766.699 12847955.375 10 0 59243 44100.00000 0 16982490.919 -11067132.781 15370257.497 10 0 59243 45000.00000 0 15796027.534 -9402230.508 17591571.624 10 0 59243 45900.00000 0 14606547.032 -7437371.388 19468616.341 10 0 59243 46800.00000 0 13469694.096 -5205977.452 20964953.028 10 0 59243 47700.00000 0 12435194.686 -2752417.437 22051690.549 10 0 59243 48600.00000 0 11544755.433 -130382.783 22708031.312 10 0 59243 49500.00000 0 10830330.495 2599126.027 22921649.628 10 0 59243 50400.00000 0 10312827.496 5370116.013 22688897.238 10 0 59243 51300.00000 0 10001304.423 8114122.520 22014834.894 10 0 59243 52200.00000 0 9892687.749 10762828.069 20913092.485 10 0 59243 53100.00000 0 9972019.648 13250669.947 19405563.608 10 0 59243 54000.00000 0 10213219.751 15517329.121 17521943.515 10 0 59243 54900.00000 0 10580325.578 17509999.030 15299121.945 10 0 59243 55800.00000 0 11029156.353 19185342.914 12780444.759 10 0 59243 56700.00000 0 11509327.975 20511062.042 10014860.057 10 0 59243 57600.00000 0 11966533.260 21467013.747 7055966.033 10 0 59243 58500.00000 0 12344991.502 22045836.792 3960979.089 10 0 59243 59400.00000 0 12589965.312 22253061.902 789641.475 10 0 59243 60300.00000 0 12650240.636 22106705.955 -2396911.748 10 0 59243 61200.00000 0 12480468.001 21636369.021 -5537306.223 10 0 59243 62100.00000 0 12043269.027 20881873.088 -8571082.304 10 0 59243 63000.00000 0 11311021.960 19891499.359 -11439829.831 10 0 59243 63900.00000 0 10267252.975 18719896.728 -14088284.278 10 0 59243 64800.00000 0 8907575.717 17425746.902 -16465365.857 10 0 59243 65700.00000 0 7240139.420 16069281.197 -18525143.872 10 0 59243 66600.00000 0 5285565.431 14709749.948 -20227709.748 10 0 59243 67500.00000 0 3076372.145 13402947.523 -21539943.359 10 0 59243 68400.00000 0 655908.680 12198894.015 -22436158.707 10 0 59243 69300.00000 0 -1923162.583 11139768.931 -22898616.474 10 0 59243 70200.00000 0 -4600776.178 10258182.600 -22917892.746 10 0 59243 71100.00000 0 -7311691.727 9575858.009 -22493095.174 10 0 59243 72000.00000 0 -9987951.561 9102779.724 -21631919.967 10 0 59243 72900.00000 0 -12561468.991 8836847.928 -20350545.653 10 0 59243 73800.00000 0 -14966641.773 8764055.061 -18673362.238 10 0 59243 74700.00000 0 -17142882.703 8859180.953 -16632537.537 10 0 59243 75600.00000 0 -19036961.428 9086980.311 -14267425.698 10 0 59243 76500.00000 0 -20605057.953 9403815.100 -11623826.486 10 0 59243 77400.00000 0 -21814439.253 9759664.572 -8753107.634 10 0 59243 78300.00000 0 -22644685.567 10100428.431 -5711206.080 10 0 59243 79200.00000 0 -23088411.597 10370424.784 -2557527.420 10 0 59243 80100.00000 0 -23151449.365 10514974.876 646233.885 10 0 59243 81000.00000 0 -22852482.995 10482961.790 3837328.541 10 0 59243 81900.00000 0 -22222149.861 10229250.545 6953213.708 10 0 59243 82800.00000 0 -21301646.406 9716862.648 9932813.360 10 0 59243 83700.00000 0 -20140899.182 8918808.697 12717749.404 10 0 59243 84600.00000 0 -18796381.054 7819497.804 15253515.924 10 0 59243 85500.00000 0 -17328668.319 6415661.558 17490570.341 10 0 59244 0.00000 0 -15799845.609 4716752.038 19385317.778 10 0 59244 900.00000 0 -14270871.761 2744796.401 20900968.047 10 0 59244 1800.00000 0 -12799020.128 533716.231 22008247.618 10 0 59244 2700.00000 0 -11435504.114 -1871859.755 22685953.734 10 0 59244 3600.00000 0 -10223387.007 -4418235.898 22921341.110 10 0 59244 4500.00000 0 -9195864.320 -7044672.406 22710335.928 10 0 59244 5400.00000 0 -8374988.125 -9685703.628 22057575.859 10 0 59244 6300.00000 0 -7770883.830 -12273653.532 20976278.429 10 0 59244 7200.00000 0 -7381488.246 -14741242.570 19487943.457 10 0 59244 8100.00000 0 -7192815.488 -17024177.702 17621898.369 10 0 59244 9000.00000 0 -7179735.136 -19063619.084 15414697.783 10 0 59244 9900.00000 0 -7307226.110 -20808423.029 12909391.171 10 0 59244 10800.00000 0 -7532050.345 -22217071.137 10154674.229 10 0 59244 11700.00000 0 -7804773.875 -23259208.960 7203941.105 10 0 59244 12600.00000 0 -8072049.333 -23916734.010 4114255.981 10 0 59244 13500.00000 0 -8279064.050 -24184391.589 945263.221 10 0 59244 14400.00000 0 -8372051.891 -24069856.867 -2241944.110 10 0 59244 15300.00000 0 -8300765.073 -23593302.287 -5385977.211 10 0 59244 16200.00000 0 -8020804.314 -22786469.888 -8426305.969 10 0 59244 17100.00000 0 -7495711.672 -21691287.671 -11304395.081 10 0 59244 18000.00000 0 -6698740.194 -20358087.115 -13964802.514 10 0 59244 18900.00000 0 -5614227.405 -18843494.579 -16356221.760 10 0 59244 19800.00000 0 -4238515.353 -17208082.148 -18432450.219 10 0 59244 20700.00000 0 -2580377.951 -15513873.099 -20153267.010 10 0 59244 21600.00000 0 -660935.682 -13821802.986 -21485204.833 10 0 59244 22500.00000 0 1486941.911 -12189239.459 -22402201.837 10 0 59244 23400.00000 0 3819724.999 -10667662.050 -22886120.939 10 0 59244 24300.00000 0 6284762.834 -9300597.317 -22927125.827 10 0 59244 25200.00000 0 8822214.411 -8121895.095 -22523904.754 10 0 59244 26100.00000 0 11367294.614 -7154418.560 -21683735.471 10 0 59244 27000.00000 0 13852746.272 -6409204.482 -20422387.026 10 0 59244 27900.00000 0 16211438.097 -5885131.240 -18763856.973 10 0 59244 28800.00000 0 18378981.762 -5569111.444 -16739945.551 10 0 59244 29700.00000 0 20296259.138 -5436804.040 -14389671.735 10 0 59244 30600.00000 0 21911752.991 -5453818.591 -11758539.531 10 0 59244 31500.00000 0 23183581.165 -5577362.932 -8897666.655 10 0 59244 32400.00000 0 24081145.940 -5758265.523 -5862791.262 10 0 59244 33300.00000 0 24586325.781 -5943286.650 -2713175.879 10 0 59244 34200.00000 0 24694155.935 -6077618.973 489569.054 10 0 59244 35100.00000 0 24412966.460 -6107468.652 3682717.142 10 0 59244 36000.00000 0 23763970.018 -5982603.853 6803686.604 10 0 59244 36900.00000 0 22780316.238 -5658758.263 9791301.302 10 0 59244 37800.00000 0 21505653.316 -5099783.353 12587023.913 10 0 59244 38700.00000 0 19992259.494 -4279454.131 15136133.587 10 0 59244 39600.00000 0 18298826.241 -3182848.767 17388821.745 10 0 59244 40500.00000 0 16487990.124 -1807241.539 19301182.222 10 0 59244 41400.00000 0 14623720.932 -162470.441 20836074.838 10 0 59244 42300.00000 0 12768679.321 1729235.742 21963844.943 10 0 59244 43200.00000 0 10981657.412 3833962.342 22662885.467 10 0 59244 44100.00000 0 9315211.109 6107314.046 22920031.919 10 0 59244 45000.00000 0 7813583.411 8496067.419 22730784.894 10 0 59244 45900.00000 0 6511004.242 10940199.087 22099358.545 10 0 59244 46800.00000 0 5430435.241 13375202.768 21038557.203 10 0 59244 47700.00000 0 4582808.325 15734596.938 19569485.709 10 0 59244 48600.00000 0 3966785.417 17952518.127 17721102.139 10 0 59244 49500.00000 0 3569044.676 19966292.353 15529624.180 10 0 59244 50400.00000 0 3365076.764 21718879.055 13037802.869 10 0 59244 51300.00000 0 3320453.792 23161088.298 10294079.233 10 0 59244 52200.00000 0 3392514.633 24253482.011 7351640.933 10 0 59244 53100.00000 0 3532393.946 24967883.599 4267397.340 10 0 59244 54000.00000 0 3687308.850 25288436.591 1100892.242 10 0 59244 54900.00000 0 3803007.517 25212171.537 -2086826.051 10 0 59244 55800.00000 0 3826278.019 24749060.146 -5234357.042 10 0 59244 56700.00000 0 3707413.915 23921556.258 -8281102.817 10 0 59244 57600.00000 0 3402535.193 22763643.596 -11168405.473 10 0 59244 58500.00000 0 2875669.249 21319429.675 -13840647.806 10 0 59244 59400.00000 0 2100506.262 19641343.165 -16246298.705 10 0 59244 60300.00000 0 1061756.245 17788007.597 -18338885.532 10 0 59244 61200.00000 0 -243949.173 15821877.133 -20077876.729 10 0 59244 62100.00000 0 -1807649.271 13806729.710 -21429459.206 10 0 59244 63000.00000 0 -3608160.602 11805118.725 -22367196.396 10 0 59244 63900.00000 0 -5612696.236 9875886.690 -22872554.318 10 0 59244 64800.00000 0 -7777976.374 8071842.228 -22935284.815 10 0 59244 65700.00000 0 -10051788.815 6437696.026 -22553656.961 10 0 59244 66600.00000 0 -12374938.925 5008341.684 -21734529.858 10 0 59244 67500.00000 0 -14683512.207 3807554.092 -20493262.467 10 0 59244 68400.00000 0 -16911358.628 2847161.498 -18853458.845 10 0 59244 69300.00000 0 -18992697.303 2126728.445 -16846550.215 10 0 59244 70200.00000 0 -20864733.704 1633765.603 -14511218.599 10 0 59244 71100.00000 0 -22470179.434 1344460.383 -11892670.200 10 0 59244 72000.00000 0 -23759567.157 1224899.807 -9041770.492 10 0 59244 72900.00000 0 -24693260.699 1232735.375 -6014056.505 10 0 59244 73800.00000 0 -25243072.348 1319219.829 -2868645.283 10 0 59244 74700.00000 0 -25393415.529 1431528.614 332939.209 10 0 59244 75600.00000 0 -25141940.930 1515265.411 3527995.961 10 0 59244 76500.00000 0 -24499626.605 1517042.194 6653906.761 10 0 59244 77400.00000 0 -23490316.708 1387020.359 9649397.870 10 0 59244 78300.00000 0 -22149728.133 1081300.745 12455775.243 10 0 59244 79200.00000 0 -20523968.020 564057.013 15018105.511 10 0 59244 80100.00000 0 -18667626.917 -190681.658 17286316.373 10 0 59244 81000.00000 0 -16641531.014 -1197676.721 19216192.403 10 0 59244 81900.00000 0 -14510251.486 -2459614.056 20770245.242 10 0 59244 82800.00000 0 -12339479.076 -3966762.287 21918440.536 10 0 59244 83700.00000 0 -10193376.946 -5697169.190 22638767.920 10 0 59244 84600.00000 0 -8132024.608 -7617386.241 22917644.369 10 0 59244 85500.00000 0 -6209060.674 -9683688.429 22750145.186 99